Omaha, NE

12:01 AM CST on February 12, 2016 (GMT -0600)
Eppley Airfield

Weather History for KOMA - October, 2010

Change the Weather History Date:

Friday, October 29, 2010

  Actual Average Record
Temperature  
Mean Temperature 51 °F 48 °F  
Max Temperature 70 °F 59 °F 90 °F (1937)
Min Temperature 31 °F 37 °F 12 °F (1925)
Degree Days  
Heating Degree Days 14 17  
Month to date heating degree days 220 346  
Since 1 July heating degree days 268 449  
Cooling Degree Days 0 0  
Month to date cooling degree days 16 12  
Year to date cooling degree days 1388 1109  
Growing Degree Days 1 (Base 50)    
Moisture  
Dew Point 28 °F    
Average Humidity 49    
Maximum Humidity 75    
Minimum Humidity 22    
Precipitation  
Precipitation 0.00 in 0.06 in 2.31 in (1872)
Month to date precipitation 0.16 2.03  
Year to date precipitation 32.07 27.82  
Snow  
Snow 0.00 in 0.10 in - ()
Month to date snowfall 0.0 0.3  
Since 1 July snowfall 0.0 0.3  
Snow Depth 0.00 in    
Sea Level Pressure  
Sea Level Pressure 30.16 in    
Wind  
Wind Speed 13 mph (South)    
Max Wind Speed 28 mph    
Max Gust Speed 35 mph    
Visibility 10 miles    
Events      
T = Trace of Precipitation, MM = Missing Value Source: NWS Daily Summary

Daily Weather History Graph

Daily Weather History Graph

Search for Another Location

Airport or City:

Trip Planner

Search our weather history database for the weather conditions in past years. The results will help you decide how hot, cold, wet, or windy it might be!

Date:

Astronomy

Oct. 29, 2010 Rise Set
Actual Time 7:51 AM CDT 6:22 PM CDT
Civil Twilight 7:22 AM CDT 6:51 PM CDT
Nautical Twilight 6:50 AM CDT 7:23 PM CDT
Astronomical Twilight 6:18 AM CDT 7:55 PM CDT
Moon No Moon Rise 1:54 PM CDT (10/29)
Length of Visible Light 11h 28m
Length of Day
10h 31m
Waning Gibbous, 59% of the Moon is Illuminated
Oct 29
Waning Gibbous
Oct 30
Last Quarter
Nov 5
New
Nov 13
First Quarter
Nov 21
Full

Hourly Weather History & Observations

Time (CDT) Temp. Windchill Dew Point Humidity Pressure Visibility Wind Dir Wind Speed Gust Speed Precip Events Conditions
12:52 AM 34.0 °F - 27.0 °F 75% 30.44 in 10.0 mi Calm Calm - N/A   Partly Cloudy
1:52 AM 34.0 °F - 27.0 °F 75% 30.41 in 10.0 mi Calm Calm - N/A   Partly Cloudy
2:52 AM 34.0 °F 31.0 °F 25.0 °F 70% 30.41 in 10.0 mi SSE 3.5 mph - N/A   Partly Cloudy
3:52 AM 33.1 °F 28.7 °F 25.0 °F 72% 30.40 in 10.0 mi SSE 4.6 mph - N/A   Partly Cloudy
4:52 AM 33.1 °F 26.1 °F 24.1 °F 70% 30.38 in 10.0 mi SSE 8.1 mph - N/A   Partly Cloudy
5:52 AM 32.0 °F 25.6 °F 23.0 °F 69% 30.36 in 10.0 mi SSE 6.9 mph - N/A   Partly Cloudy
6:52 AM 35.1 °F 27.4 °F 23.0 °F 61% 30.35 in 10.0 mi SSE 10.4 mph - N/A   Partly Cloudy
7:52 AM 33.1 °F 26.1 °F 23.0 °F 66% 30.32 in 10.0 mi SSE 8.1 mph - N/A   Partly Cloudy
8:52 AM 39.9 °F 32.1 °F 23.0 °F 51% 30.30 in 10.0 mi South 13.8 mph - N/A   Partly Cloudy
9:52 AM 45.0 °F 38.5 °F 26.1 °F 48% 30.27 in 10.0 mi SSE 13.8 mph - N/A   Partly Cloudy
10:52 AM 52.0 °F - 28.9 °F 41% 30.23 in 10.0 mi South 12.7 mph - N/A   Partly Cloudy
11:52 AM 57.9 °F - 32.0 °F 37% 30.19 in 10.0 mi South 15.0 mph - N/A   Partly Cloudy
12:52 PM 64.0 °F - 30.0 °F 28% 30.14 in 10.0 mi South 18.4 mph 26.5 mph N/A   Partly Cloudy
1:52 PM 68.0 °F - 28.9 °F 23% 30.07 in 10.0 mi South 23.0 mph 33.4 mph N/A   Partly Cloudy
2:52 PM 69.1 °F - 28.0 °F 22% 30.03 in 10.0 mi South 26.5 mph 34.5 mph N/A   Partly Cloudy
3:52 PM 70.0 °F - 30.0 °F 23% 30.00 in 10.0 mi SSW 18.4 mph 32.2 mph N/A   Scattered Clouds
4:52 PM 69.1 °F - 30.9 °F 24% 29.98 in 10.0 mi South 18.4 mph 26.5 mph N/A   Scattered Clouds
5:52 PM 66.9 °F - 30.0 °F 25% 29.96 in 10.0 mi South 15.0 mph 23.0 mph N/A   Mostly Cloudy
6:52 PM 64.9 °F - 30.0 °F 27% 29.96 in 10.0 mi South 17.3 mph 23.0 mph N/A   Mostly Cloudy
7:52 PM 63.0 °F - 30.0 °F 29% 29.96 in 10.0 mi South 16.1 mph - N/A   Mostly Cloudy
8:52 PM 55.9 °F - 34.0 °F 44% 29.94 in 10.0 mi SSE 12.7 mph - N/A   Mostly Cloudy
9:52 PM 55.9 °F - 34.0 °F 44% 29.93 in 10.0 mi South 11.5 mph - N/A   Scattered Clouds
10:52 PM 55.9 °F - 32.0 °F 40% 29.92 in 10.0 mi South 15.0 mph - N/A   Partly Cloudy
11:52 PM 55.9 °F - 32.0 °F 40% 29.90 in 10.0 mi South 13.8 mph 21.9 mph N/A   Scattered Clouds